Weather History for HKMO - January, 2015

Change the Weather History Date:

Thursday, January 1, 2015

  Actual Average Record
Temperature  
Mean Temperature 83 °F -  
Max Temperature 93 °F 92 °F 94 °F (2013)
Min Temperature 73 °F 72 °F 72 °F (2014)
Cooling Degree Days 18    
Growing Degree Days 33 (Base 50)    
Moisture  
Dew Point 72 °F    
Average Humidity 78    
Maximum Humidity 100    
Minimum Humidity 44    
Precipitation  
Precipitation 0.00 in 0.04 in - ()
Sea Level Pressure  
Sea Level Pressure 29.87 in    
Wind  
Wind Speed 4 mph ()    
Max Wind Speed 13 mph    
Max Gust Speed -    
Visibility 8.1 miles    
Events      
Averages and records for this station are not official NWS values.
T = Trace of Precipitation, MM = Missing Value Source: Averaged Metar Reports

Daily Weather History Graph

Daily Weather History Graph

Search for Another Location

Airport or City:

Trip Planner

Search our weather history database for the weather conditions in past years. The results will help you decide how hot, cold, wet, or windy it might be!

Date:

Astronomy

Jan. 01, 2015 Rise Set
Actual Time 6:14 AM EAT 6:35 PM EAT
Civil Twilight 5:51 AM EAT 6:58 PM EAT
Nautical Twilight 5:25 AM EAT 7:24 PM EAT
Astronomical Twilight 4:58 AM EAT 7:51 PM EAT
Moon 3:27 PM EAT (1/1) 2:51 AM EAT (1/1)
Length of Visible Light 13h 06m
Length of Day
12h 21m
Waxing Gibbous, 85% of the Moon is Illuminated
Jan 1
Waxing Gibbous
Jan 5
Full
Jan 13
Last Quarter
Jan 20
New
Jan 27
First Quarter

Hourly Weather History & Observations

Time (EAT) Temp. Heat Index Dew Point Humidity Pressure Visibility Wind Dir Wind Speed Gust Speed Precip Events Conditions
12:00 AM 78 °F - 74 °F 86% 29.85 in 19 mi Calm Calm - -   Partly Cloudy
12:00 AM 78.8 °F - 75.2 °F 89% 29.83 in 6.2 mi Calm Calm - N/A   Scattered Clouds
1:00 AM 77.0 °F - 73.4 °F 89% 29.83 in 6.2 mi Calm Calm - N/A   Mostly Cloudy
2:00 AM 77.0 °F - 73.4 °F 89% 29.83 in 6.2 mi Calm Calm - N/A   Mostly Cloudy
3:00 AM 76 °F - 73 °F 89% 29.83 in 19 mi Calm Calm - -   Mostly Cloudy
4:00 AM 75.2 °F - 73.4 °F 94% 29.83 in 6.2 mi Calm Calm - N/A   Scattered Clouds
5:00 AM 75.2 °F - 73.4 °F 94% 29.86 in 6.2 mi NNW 3.5 mph - N/A   Partly Cloudy
6:00 AM 75 °F - 72 °F 88% 29.88 in 19 mi Calm Calm - -   Scattered Clouds
6:00 AM 75.2 °F - 71.6 °F 89% 29.89 in 6.2 mi Calm Calm - N/A   Partly Cloudy
7:00 AM 75.2 °F - 73.4 °F 94% 29.89 in 6.2 mi NNW 3.5 mph - N/A   Mostly Cloudy
8:00 AM 78.8 °F - 73.4 °F 83% 29.92 in 6.2 mi North 6.9 mph - N/A   Mostly Cloudy
9:00 AM 83 °F - 73 °F 64% 29.94 in 19 mi North 8.1 mph - -   Scattered Clouds
9:00 AM 82.4 °F 88.2 °F 73.4 °F 74% 29.95 in 6.2 mi North 8.1 mph - N/A   Mostly Cloudy
10:00 AM 84.2 °F 89.6 °F 71.6 °F 66% 29.95 in 6.2 mi North 9.2 mph - N/A   Mostly Cloudy
11:00 AM 86.0 °F 90.4 °F 69.8 °F 58% 29.92 in 6.2 mi NE 9.2 mph - N/A   Scattered Clouds
12:00 PM 87.8 °F 92.6 °F 69.8 °F 55% 29.92 in 6.2 mi NNE 8.1 mph - N/A   Mostly Cloudy
1:00 PM 89.6 °F 94.7 °F 69.8 °F 52% 29.86 in 6.2 mi NNE 9.2 mph - N/A   Scattered Clouds
2:00 PM 93.2 °F 97.7 °F 68.0 °F 44% 29.83 in 6.2 mi NNE 10.4 mph - N/A   Scattered Clouds
3:00 PM 89.6 °F 98.2 °F 73.4 °F 59% 29.80 in 6.2 mi East 12.7 mph - N/A   Partly Cloudy
5:00 PM 86.0 °F 90.4 °F 69.8 °F 58% 29.80 in 6.2 mi ENE 11.5 mph - N/A   Partly Cloudy
6:00 PM 84.2 °F 88.4 °F 69.8 °F 62% 29.83 in 6.2 mi ENE 12.7 mph - N/A   Partly Cloudy
7:00 PM 80.6 °F 85.4 °F 73.4 °F 79% 29.83 in 6.2 mi NE 11.5 mph - N/A   Partly Cloudy
8:00 PM 80.6 °F 85.4 °F 73.4 °F 79% 29.86 in 6.2 mi NE 9.2 mph - N/A   Partly Cloudy
9:00 PM 78.8 °F - 73.4 °F 83% 29.86 in 6.2 mi NE 9.2 mph - N/A   Partly Cloudy
10:00 PM 73.4 °F - 73.4 °F 100% 29.86 in 6.2 mi NE 8.1 mph - N/A   Partly Cloudy
10:30 PM 77.0 °F - 75.2 °F 94% 29.86 in 6.2 mi NE 8.1 mph - N/A   Partly Cloudy
11:30 PM 77.0 °F - 73.4 °F 89% 29.86 in 6.2 mi NE 6.9 mph - N/A   Partly Cloudy